Weather in Suhar

Oman     24°22′03″N   56°43′06″E
temp.,
°C
wind,
m/s
gust,
m/s
humid.,
%
clouds,
%
prec.,
mm/h
press.,
hPa
HPBL,
m
17 june, thu
thu1701:00+35nw34250 0.0 99621
04:00+31n57710 0.0 997152
07:00+32ssw33610 0.0 998203
10:00+42ne23160 0.0 997870
13:00+38ne87390 0.0 996350
16:00+37nne44430 0.0 996445
19:00+34nne11460 0.0 99721
22:00+33nne11470 0.0 99711
18 june, fri
fri1801:00+32n46660 0.0 997128
04:00+31w23640 0.0 99740
07:00+33nne33530 0.0 998170
10:00+36ne64470 0.0 999828
13:00+36ne54484 0.0 998864
16:00+35ene54544 0.0 997549
19:00+33se226078 0.0 998148
22:00+32ene34646 0.0 99960
19 june, sat
sat1901:00+29nne228048 0.0 999103
04:00+29ese228289 0.0 999121
07:00+30sse227551 0.0 1001326
10:00+34ene44523 0.0 1002634
13:00+35ene65477 0.0 1000567
16:00+39ese332429 0.0 998632
19:00+33ese334880 0.0 99828
22:00+32se33493 0.0 99939
20 june, sun
sun2001:00+33wsw33311 0.0 99818
04:00+32nw22240 0.0 99811
07:00+34ne33300 0.0 100084
10:00+38ne57270 0.0 1001933
13:00+39e56220 0.0 10001098
16:00+40ene33170 0.0 998789
19:00+34ese22240 0.0 99811
22:00+33sse56280 0.0 99956
21 june, mon
mon2101:00+32sse22240 0.0 99821
04:00+30e34530 0.0 99967
07:00+31ese33560 0.0 1001257
10:00+35ene43420 0.0 1002796
13:00+36ene76440 0.0 1001652
16:00+36e45370 0.0 1000610
19:00+31ene44640 0.0 100095
22:00+30se33730 0.0 1002111